Regional Weather Roundup
Issued by NWS

Home | Current Version | Previous Version | Text Only | Print | Product List | Glossary Off
Versions: 1 2 3 4 5 6 7 8 9 10 11 12 13 14 15 16 17 18 19 20 21 22 23 24 25 26 27 28 29 30 31 32 33 34 35 36 37 38 39 40 41 42 43 44 45 46 47 48 49 50

000
ASUS43 KMPX 260801
RWRMN
WEATHER ROUNDUP FOR MINNESOTA
NATIONAL WEATHER SERVICE TWIN CITIES/CHANHASSEN MN
300 AM CDT SUN OCT 26 2014


NOTE: "FAIR" INDICATES FEW OR NO CLOUDS BELOW 12,000 FEET WITH NO
SIGNIFICANT WEATHER AND/OR OBSTRUCTIONS TO VISIBILITY. N/A MEANS
CURRENT SKY AND/OR WEATHER CONDITIONS ARE NOT AVAILABLE.

MNZ060>063-068>070-260900-
   Twin Cities Metro

CITY           SKY/WX    TMP DP  RH WIND       PRES   REMARKS
TWIN CITIES    CLEAR     40  29  64 CALM      30.04F
ST PAUL        CLEAR     39  33  79 CALM      30.05S
CRYSTAL        CLEAR     36  28  73 CALM      30.02F
BLAINE         CLEAR     36  30  80 CALM      30.03S
LAKEVILLE      CLEAR     30  28  93 CALM      30.04S
EDEN PRAIRIE   CLEAR     40  33  76 CALM      30.03S
SOUTH ST PAUL  CLEAR     39  30  71 CALM      30.04S
LAKE ELMO      FAIR      34  32  93 CALM      30.04S
$$
MNZ001>005-007-008-013>017-022>024-027-028-260900-
   Northwest Minnesota

CITY           SKY/WX    TMP DP  RH WIND       PRES   REMARKS
BEMIDJI        CLEAR     33  25  72 W3        29.99S
HALLOCK        PTCLDY    32  21  64 SE8       29.95F WCI  25
ROSEAU         CLEAR     32  25  74 S3        29.96S
WARROAD        CLEAR     30  27  86 SW3       29.97S
THIEF RVR FALL PTCLDY    36  23  60 S3        29.97F
CROOKSTON      PTCLDY    34  25  69 SE8       29.97F WCI  27
FOSSTON        CLEAR     32  23  69 CALM      29.98F
DETROIT LAKES  CLEAR     36  32  87 CALM      30.00S
MOORHEAD       CLEAR     37  27  65 SE5       29.98F
PARK RAPIDS    CLEAR     32  25  75 CALM      29.99F
MAHNOMEN       FAIR      39  26  59 SE7       29.99S
$$
MNZ006-009>011-018-025>026-260900-
   North Central Minnesota

CITY           SKY/WX    TMP DP  RH WIND       PRES   REMARKS
BAUDETTE       CLEAR     32  25  75 CALM      29.97R
FLAG ISLAND    CLEAR     39  32  75 NW5       29.95S
INTL FALLS     CLEAR     23  20  88 CALM      29.95S
WASKISH        CLEAR     28  27  93 CALM      29.98R
BIG FORK       CLEAR     28  25  86 CALM      29.98R
LONGVILLE      CLEAR     30  28  93 CALM      30.00R
GRAND RAPIDS   CLEAR     37  27  65 CALM      29.98S
CRANE LAKE     FAIR      27  25  93 CALM      29.97S
ORR            CLEAR     32  25  74 CALM      29.94S
COOK           CLEAR     28  25  86 CALM      29.97S
WALKER         FAIR      35  26  67 CALM      29.99S
$$
MNZ012-019>021-037-260900-
   Northeast Minnesota

CITY           SKY/WX    TMP DP  RH WIND       PRES   REMARKS
DULUTH         CLEAR     41  26  55 NW8       29.97S
ELY            CLEAR     34  28  80 W5        29.95R WCI  30
HIBBING        CLEAR     28  23  81 CALM      29.97S
EVELETH        CLEAR     27  25  93 CALM      29.98S
DULUTH HARBOR  CLEAR     43  30  61 CALM      29.99S
TWO HARBORS    CLEAR     43  18  36 NW6       29.95S
SILVER BAY     CLEAR     39  27  60 W5        29.94S
GRAND MARAIS     N/A     43  31  62 W7        29.90R
G MARAIS ARPRT CLEAR     39  27  60 NW13G21   29.89R
$$
MNZ029>031-032-039>041-046>048-054>057-064-260900-
   West Central Minnesota

CITY           SKY/WX    TMP DP  RH WIND       PRES   REMARKS
FERGUS FALLS   CLEAR     41  27  56 SE5       30.00F
WHEATON        CLEAR     34  27  75 SE8       29.99F WCI  27
MORRIS         CLEAR     34  27  75 SE7       29.99F WCI  28
ALEXANDRIA     CLEAR     37  28  70 SE5       30.01F
ELBOW LAKE     FAIR      37  28  69 SE6       29.99F
WADENA         CLEAR     30  27  86 CALM      30.00S
GLENWOOD       FAIR      37  30  75 SE5       30.01F
APPLETON       CLEAR     34  30  86 CALM      29.99F
BENSON         CLEAR     30  28  93 CALM      30.00F
ORTONVILLE     CLEAR     37  30  75 SE3       29.98F
MADISON        CLEAR     37  30  75 S3        29.99F
WILLMAR        FAIR      36  28  75 S3        30.03F
$$
MNZ033>034-036-042>043-049>051-058-059-260900-
   Central Minnesota

CITY           SKY/WX    TMP DP  RH WIND       PRES   REMARKS
ST CLOUD       CLEAR     34  28  79 NE3       30.02F
SAUK CENTRE    FAIR      31  26  84 CALM      30.02F
PAYNESVILLE    CLEAR     28  28  97 CALM      30.03S
AITKIN         CLEAR     30  27  86 CALM      29.99S
PINE RIVER     CLEAR     28  25  86 CALM      30.04S
BRAINERD       CLEAR     32  27  81 S3        30.01F
STAPLES        CLEAR     28  27  93 CALM      30.01S
LONG PRAIRIE   FAIR      32  32 100 CALM      30.02F
LITTLE FALLS   CLEAR     30  28  93 CALM      30.02F
LITCHFIELD     CLEAR     37  36  93 CALM      30.03F
BUFFALO        CLEAR     33  28  84 CALM      30.04F
MAPLE LAKE     CLEAR     34  31  92 CALM      30.04S
$$
MNZ037-044-045-052-053-260900-
   East Central Minnesota

CITY           SKY/WX    TMP DP  RH WIND       PRES   REMARKS
PRINCETON      CLEAR     30  27  86 CALM      30.03S
MORA           CLEAR     32  28  86 CALM      30.03S
CAMBRIDGE      CLEAR     34  27  75 CALM      30.01S
RUSH CITY      CLEAR     33  28  83 CALM      30.02F
MOOSE LAKE     CLEAR     34  27  75 CALM      29.98F
HINCKLEY       FAIR      32  30  93 CALM      30.01S
CLOQUET        CLEAR     39  27  60 W7        29.98S
MCGREGOR       CLEAR     37  27  65 CALM      30.00S
$$
MNZ071>073-080-081-089-090-097-098-260900-
   Southwest Minnesota

CITY           SKY/WX    TMP DP  RH WIND       PRES   REMARKS
MONTEVIDEO     CLEAR     37  30  75 S5        30.01F
GRANITE FALLS  CLEAR     36  31  82 SE3       30.02F
CANBY          CLEAR     37  31  81 CALM      29.99F
MARSHALL       CLEAR     41  28  60 S6        29.99F
REDWOOD FALLS  CLEAR     37  29  72 S3        30.02F
OLIVIA         CLEAR     36  30  80 CALM      30.01F
PIPESTONE      CLEAR     43  30  61 SE8       29.99F
WINDOM         CLEAR     36  30  80 CALM      30.03F
WORTHINGTON    CLEAR     39  30  70 E9        30.03F
JACKSON        CLEAR     41  30  65 SE5       30.03F
TRACY          CLEAR     46  31  57 SE6       30.01F
SLAYTON        CLEAR     40  30  65 CALM      30.02F
$$
MNZ065>067-074>077-082>085-091>093-260900-
   South Central Minnesota

CITY           SKY/WX    TMP DP  RH WIND       PRES   REMARKS
MANKATO        CLEAR     41  30  65 E6        30.03F
NEW ULM        CLEAR     37  32  81 CALM      30.03F
ST JAMES       CLEAR     36  30  80 CALM      30.04F
FAIRMONT       CLEAR     37  27  65 CALM      30.04F
GLENCOE        CLEAR     34  29  82 CALM      30.03F
FARIBAULT      CLEAR     30  28  93 CALM      30.05S
OWATONNA       CLEAR     30  28  93 CALM      30.05S
WASECA         CLEAR     34  27  75 NE3       30.06F
ALBERT LEA     CLEAR     37  36  93 SW3       30.05S
$$
MNZ078>079-086>088-094>096-260900-
   Southeast Minnesota

CITY           SKY/WX    TMP DP  RH WIND       PRES   REMARKS
ROCHESTER      CLEAR     43  26  51 N7        30.06R
RED WING       CLEAR     32  28  86 N3        30.04R
STANTON        CLEAR     30  27  88 S6        30.03S WCI  24
DODGE CENTER   PTCLDY    37  28  70 CALM      30.05S
WINONA         CLEAR     37  34  87 CALM      30.05S
AUSTIN         CLEAR     34  30  86 CALM      30.05S
PRESTON        CLEAR     43  26  52 CALM      30.05R
$$
ABBREVIATIONS USED IN REMARKS
   TC - TEMPERATURES IN CELSIUS
  WCI - WIND CHILL INDEX
   HX - HEAT INDEX
  VSB - VISIBILITY
$$



USA.gov is the U.S. government's official web portal to all federal, state and local government web resources and services.